Volver al catálogo

STARLINK-3915

ActivoComunicacionesVLEO
NORAD 52581·PAYLOAD·🇺🇸 United States

Lanzado May 13, 2022 desde Vandenberg Space Force Base

Loading…

Próximos Pases (próximas 24 horas)

TLE

ActualizadoSource: CelesTrak SupGP

Época: Sep 14, 2026, 21:27 UTC

1 52581C 22051AX  26257.89423611 -.00031649  00000+0 -90558-3 0  2578
2 52581  53.1590 343.6895 0001178  82.9181  36.7312 15.35411554    17

Sigue STARLINK-3915 en tiempo real con AllMySat

Download on the App Store